Regional Weather Roundup
Issued by NWS Green Bay, WI

Home | Current Version | Previous Version | Graphics & Text | Print | Product List | Glossary Off
Versions: 1 2 3 4 5 6 7 8 9 10 11 12 13 14 15 16 17 18 19 20 21 22 23 24 25 26 27 28 29 30 31 32 33 34 35 36 37 38 39 40 41 42 43 44 45 46 47 48 49 50

000
ASUS43 KGRB 272311
RWRGRB

NORTH-CENTRAL AND NORTHEAST WISCONSIN REGIONAL WEATHER ROUNDUP
NATIONAL WEATHER SERVICE GREEN BAY WI
600 PM CDT WED MAY 27 2015

WIZ005-009-010>012-018-019-280000-
NORTH CENTRAL WISCONSIN

CITY           SKY/WX    TMP DP  RH WIND       PRES   REMARKS
IRONWOOD       PTSUNNY   75  57  53 W9        29.90R
MANITOWISH WTR PTSUNNY   64  53  69 W7        29.96R THUNDER
ARBOR VITAE    TSTM      65  53  65 W13G24    29.99R
EAGLE RIVER    MOSUNNY   66  57  71 W6        29.94R
LAND O LAKES   MOSUNNY   74  47  38 W6        29.94R
RHINELANDER    TSTM      71  57  61 W10       29.97R
PHILLIPS       PTSUNNY   73  56  56 CALM      29.96R
ANTIGO         SUNNY     71  60  67 W16       29.97R
TOMAHAWK       MOSUNNY   73  55  52 W10G17    29.97R
MERRILL        SUNNY     75  60  60 W10       29.97R
$$

WIZ013-073-280000-
NORTHEAST WISCONSIN

CITY           SKY/WX    TMP DP  RH WIND       PRES   REMARKS
IRON MOUNTAIN  PTSUNNY   76  57  51 SW7       29.89S
MARINETTE      PTSUNNY   57  50  77 SE9       29.95R THUNDER
OCONTO         MOSUNNY   76  60  57 W8G16     29.94R
$$

WIZ017-030-035>037-045-280000-
CENTRAL WISCONSIN

CITY           SKY/WX    TMP DP  RH WIND       PRES   REMARKS
MEDFORD        SUNNY     73  58  60 W12       29.99R
WAUSAU         SUNNY     75  58  55 W13       29.96R
MOSINEE        MOSUNNY   73  59  60 W13G21    29.98S
MARSHFIELD     SUNNY     76  57  51 W12       29.98S
WISC RAPIDS    MOSUNNY   78  55  44 W9        29.99S
STEVENS POINT  SUNNY     74  56  53 W14G20    29.98S
WAUPACA        SUNNY     78  57  48 W9        29.97S
SHAWANO        MOSUNNY   77  59  52 W7        29.95S
CLINTONVILLE   SUNNY     77  55  47 W9G16     29.95S
$$

WIZ038-039-048-051-280000-
FOX VALLEY

CITY           SKY/WX    TMP DP  RH WIND       PRES   REMARKS
NWS GREEN BAY  SUNNY     76  60  57 W15       29.96R
APPLETON       MOSUNNY   75  54  46 W13G21    29.97S
OSHKOSH        SUNNY     76  56  49 SW6       29.98S
FOND DU LAC    SUNNY     75  56  51 W9        29.99S
$$

WIZ022-050-052-280000-
EAST CENTRAL WISCONSIN

CITY           SKY/WX    TMP DP  RH WIND       PRES   REMARKS
STURGEON BAY   PTSUNNY   72  59  64 W12       29.98R
MANITOWOC      SUNNY     74  59  59 W13       29.97S
SHEBOYGAN      SUNNY     73  58  59 W12       29.99S
$$

LMZ563-521-522-541>543-280000-
LAKESHORE

STATION/POSITION TIME  TEMP    WIND        PRES    VSBY  WAVE
                       AIR SEA DIR/SP/G                  HT/PER
                 (UTC) (F)     (DEG/KT/KT) (MB)    (MI)  (FT/S)
SHEBOYGAN LKSHOR 2200   55     160/  4/  6 1016.0R
NORTHPORT PIER   2200   63     150/  4/  9 1012.9R
N MID LAKE BUOY  2150   45 37  210/ 10/ 12 1013.6          2/ 5
CHAMBERS ISLAND  2240   60     240/  5/ 11 1014.9R
$$



USA.gov is the U.S. government's official web portal to all federal, state and local government web resources and services.